Overview Statistics Trail Chart Weather Telemetry Raw packets
 

This is the latest recevied weather packets stored in our database for station/object K8WEH. If no packets are shown the sender has not sent any weather packets the latest 10 day(s).

<< 1 2 3 4 >>
Time Temp. Humidity Pressure Rain* Wind** Luminosity Snow
1788630328 30° C 62% 1014.1 hPa 0 mm - - -
1788630025 30° C 64% 1014.1 hPa 0 mm - - -
1788629724 29.44° C 63% 1014.1 hPa 0 mm - - -
1788629422 29.44° C 66% 1014.2 hPa 0 mm - - -
1788629121 28.89° C 66% 1014.3 hPa 0 mm - - -
1788628820 28.89° C 65% 1014.1 hPa 0 mm - - -
1788628519 28.33° C 68% 1014.3 hPa 0 mm - - -
1788628217 28.33° C 68% 1014.3 hPa 0 mm - - -
1788627916 27.78° C 70% 1014.3 hPa 0 mm - - -
1788627615 27.22° C 71% 1014.3 hPa 0 mm - - -
1788627314 26.67° C 71% 1014.4 hPa 0 mm - - -
1788627013 26.67° C 72% 1014.5 hPa 0 mm - - -
1788626711 26.11° C 71% 1014.5 hPa 0 mm - - -
1788626409 25.56° C 71% 1014.5 hPa 0 mm - - -
1788626109 25° C 71% 1014.5 hPa 0 mm - - -
1788625806 25° C 70% 1014.6 hPa 0 mm - - -
1788625508 25° C 69% 1014.7 hPa 0 mm - - -
1788625206 25° C 70% 1014.6 hPa 0 mm - - -
1788624904 25° C 68% 1014.4 hPa 0 mm - - -
1788624604 25° C 66% 1014.8 hPa 0 mm - - -
1788624303 25° C 64% 1014.7 hPa 0 mm - - -
1788624004 25° C 63% 1014.5 hPa 0 mm - - -
1788623703 24.44° C 64% 1014.6 hPa 0 mm - - -
1788623462 24.44° C 65% 1014.6 hPa 0 mm - - -
1788623160 24.44° C 61% 1014.6 hPa 0 mm - - -

* Rain latest hour (hover to see other rain measurements)
** Current wind speed in m/s (hover to see current wind gust speed)